Chillicothe, MO

5:26 AM CST on December 10, 2016 (GMT -0600)
Chillicothe

Weather History for KCDJ - October, 2012

Change the Weather History Date:

Tuesday, October 2, 2012

  Actual Average (KIRK) Record (KIRK)
Temperature  
Mean Temperature 64 °F -  
Max Temperature 77 °F 72 °F 94 °F (1953)
Min Temperature 52 °F 49 °F 26 °F (1974)
Growing Degree Days 14 (Base 50)    
Moisture  
Dew Point 46 °F    
Average Humidity 57    
Maximum Humidity 89    
Minimum Humidity 36    
Precipitation  
Precipitation 0.00 in - - ()
Sea Level Pressure  
Sea Level Pressure 29.89 in    
Wind  
Wind Speed 4 mph (North)    
Max Wind Speed 7 mph    
Max Gust Speed -    
Averages and records for this station are not official NWS values.
T = Trace of Precipitation, MM = Missing Value Source: NWS Daily Summary

Daily Weather History Graph

Daily Weather History Graph

Search for Another Location

Airport or City:

Trip Planner

Search our weather history database for the weather conditions in past years. The results will help you decide how hot, cold, wet, or windy it might be!

Date:

Astronomy

Oct. 02, 2012 Rise Set
Actual Time 7:12 AM CDT 6:54 PM CDT
Civil Twilight 6:45 AM CDT 7:21 PM CDT
Nautical Twilight 6:13 AM CDT 7:52 PM CDT
Astronomical Twilight 5:42 AM CDT 8:23 PM CDT
Moon 8:07 PM CDT (10/2) 9:39 AM CDT (10/2)
Length of Visible Light 12h 36m
Length of Day
11h 42m
Waning Gibbous, 94% of the Moon is Illuminated
Oct 2
Waning Gibbous
Oct 8
Last Quarter
Oct 15
New
Oct 21
First Quarter
Oct 29
Full

Hourly Weather History & Observations

Time (CDT) Temp. Dew Point Humidity Pressure Visibility Wind Dir Wind Speed Gust Speed Precip Events Conditions
12:52 AM 60.1 °F 37.0 °F 42% 29.86 in - Variable 4.6 mph - N/A   Unknown
1:52 AM 59.0 °F 39.0 °F 48% 29.87 in - NNW 4.6 mph - N/A   Unknown
2:52 AM 57.9 °F 39.9 °F 51% 29.87 in - Variable 3.5 mph - N/A   Unknown
3:52 AM 55.9 °F 39.9 °F 55% 29.87 in - NNW 3.5 mph - N/A   Unknown
4:52 AM 55.0 °F 39.9 °F 57% 29.88 in - NNW 3.5 mph - N/A   Unknown
5:52 AM 54.0 °F 39.9 °F 59% 29.89 in - Variable 4.6 mph - N/A   Unknown
6:52 AM 53.1 °F 39.9 °F 61% 29.91 in - North 4.6 mph - N/A   Unknown
7:52 AM 52.0 °F 41.0 °F 66% 29.92 in - NNW 4.6 mph - N/A   Unknown
8:52 AM 55.9 °F 43.0 °F 62% 29.93 in - North 6.9 mph - N/A   Unknown
9:52 AM 60.1 °F 45.0 °F 57% 29.93 in - North 6.9 mph - N/A   Unknown
10:52 AM 64.0 °F 46.9 °F 54% 29.93 in - NNE 5.8 mph - N/A   Unknown
11:52 AM 69.1 °F 48.0 °F 47% 29.92 in - Variable 3.5 mph - N/A   Unknown
12:52 PM 71.1 °F 48.9 °F 45% 29.90 in - Calm Calm - N/A   Unknown
1:52 PM 73.9 °F 48.0 °F 40% 29.87 in - Calm Calm - N/A   Unknown
2:52 PM 73.0 °F 48.0 °F 41% 29.85 in - SE 3.5 mph - N/A   Unknown
3:52 PM 75.0 °F 46.9 °F 37% 29.84 in - Variable 3.5 mph - N/A   Unknown
4:52 PM 77.0 °F 48.0 °F 36% 29.84 in - NW 4.6 mph - N/A   Unknown
5:52 PM 75.0 °F 48.9 °F 40% 29.84 in - Calm Calm - N/A   Unknown
6:52 PM 66.9 °F 53.1 °F 61% 29.86 in - Calm Calm - N/A   Unknown
7:52 PM 61.0 °F 54.0 °F 78% 29.88 in - Calm Calm - N/A   Unknown
8:52 PM 57.9 °F 52.0 °F 81% 29.90 in - Calm Calm - N/A   Unknown
9:52 PM 55.9 °F 51.1 °F 84% 29.90 in - Calm Calm - N/A   Unknown
10:52 PM 54.0 °F 50.0 °F 86% 29.91 in - Calm Calm - N/A   Unknown
11:52 PM 52.0 °F 48.9 °F 89% 29.90 in - Calm Calm - N/A   Unknown